Probability
11 12 12 11 10 10 9 7 4 2 3 4 4 4 4 3 2 3 4 4 3 3 3 5 5 4 4 4 4 5 6 6 6 5 3 1 0 0 0 0 0 0 0
13 14 15 13 10 10 9 8 6 5 5 4 4 5 6 4 3 4 5 4 4 4 5 6 6 5 5 5 6 6 6 6 6 5 3 1 0 0 0 0 0 0 0
14 16 17 14 11 10 10 10 10 9 8 6 5 6 7 6 5 6 7 6 6 6 8 9 9 8 8 7 6 6 6 6 6 5 2 0 0 0 0 0 0 0 0
15 16 17 15 13 13 12 12 12 11 10 8 7 8 9 9 8 8 9 9 9 10 10 11 10 9 8 7 6 6 6 6 6 4 2 0 0 0 0 0 0 0 0
14 15 15 16 16 17 16 15 14 12 11 10 9 9 10 10 9 11 12 11 11 11 11 10 9 8 7 7 6 6 6 7 7 5 3 1 1 1 1 0 0 0 0
14 13 13 15 18 20 20 18 16 14 13 12 11 10 9 8 7 8 11 12 13 13 11 9 7 6 6 6 6 5 5 5 6 5 4 2 2 2 1 0 0 0 0
15 14 14 15 19 22 22 20 18 16 16 15 12 10 9 7 5 4 6 10 13 13 10 7 7 6 6 6 5 4 3 3 2 3 3 2 2 2 2 1 1 0 0
15 16 16 18 20 22 23 22 20 18 17 16 15 13 12 9 5 2 3 7 10 10 8 7 6 6 6 5 4 3 3 1 0 1 1 1 1 2 2 2 2 1 1
13 14 17 19 19 21 23 23 22 20 18 19 19 18 16 12 7 4 4 6 8 8 6 6 5 4 4 3 3 3 3 2 0 0 0 0 0 1 1 1 2 3 2
12 13 16 18 19 19 20 21 21 19 19 22 23 22 20 16 11 6 5 6 7 7 5 4 4 3 2 2 2 3 3 1 0 0 0 0 0 0 0 1 2 3 3
12 14 16 17 18 18 18 18 19 18 19 21 22 22 21 18 12 7 5 6 7 7 6 5 3 2 1 0 1 2 2 1 0 0 0 0 0 0 0 0 1 2 3
14 15 17 16 16 17 18 18 20 20 19 19 20 19 19 17 12 7 3 3 5 7 8 7 4 1 0 0 0 1 1 0 0 0 0 0 0 0 0 0 0 1 2
13 13 14 15 15 17 19 21 23 24 22 20 20 18 16 15 12 8 4 2 2 5 7 6 3 1 0 0 0 0 0 0 0 0 0 0 0 0 0 0 0 0 1
9 9 10 11 11 14 17 20 22 23 21 19 18 16 15 14 12 10 8 5 3 3 3 2 1 0 0 0 0 0 0 0 0 0 0 0 0 0 0 0 0 0 0
5 5 7 8 7 8 10 14 16 16 14 12 12 12 12 12 10 9 8 6 4 3 1 1 1 1 1 0 0 0 0 0 0 0 0 0 0 0 0 0 0 0 0
3 4 5 5 5 5 6 7 8 7 5 4 4 6 8 8 5 4 3 3 2 1 1 1 2 3 3 2 2 1 1 1 2 2 2 1 1 0 0 0 0 0 0
3 3 4 4 4 5 5 4 3 2 1 0 0 1 3 2 2 1 0 0 0 0 0 1 4 6 6 6 5 4 4 4 5 4 4 4 2 1 1 0 0 0 0
3 3 3 3 3 4 4 4 3 1 0 0 0 0 0 0 0 0 0 0 0 0 0 1 5 8 9 9 8 5 5 5 5 4 4 4 3 3 2 1 1 0 0
3 3 3 3 3 3 3 4 3 2 0 0 0 0 0 0 0 0 0 0 0 0 0 1 5 8 8 8 7 5 4 4 4 3 3 3 3 3 3 3 2 1 0
3 3 3 3 3 3 3 4 4 3 1 0 0 0 0 0 0 0 0 0 0 0 0 1 3 5 6 5 5 3 2 2 2 2 2 3 3 3 3 3 3 2 1
3 3 3 3 3 3 3 4 4 3 2 1 0 0 0 0 0 0 0 0 0 0 0 0 1 3 4 3 2 1 1 1 1 1 1 1 2 2 2 3 3 3 3
3 3 3 3 2 2 2 3 3 3 2 1 0 0 0 0 0 0 0 0 0 0 0 0 1 2 3 2 1 0 0 0 0 0 0 0 1 1 1 1 2 2 2
2 2 2 1 1 1 1 1 2 2 1 0 0 0 0 0 0 0 0 0 0 0 0 0 1 2 2 1 0 0 0 0 0 0 0 0 0 0 0 0 1 1 1
1 1 1 0 0 0 0 1 1 1 0 0 0 0 0 0 0 0 0 0 0 0 0 0 0 1 1 0 0 0 0 0 0 0 0 0 0 0 0 0 0 0 0
0 0 0 0 0 0 0 1 1 0 0 0 0 0 0 0 0 0 0 0 0 0 0 0 0 0 0 0 0 0 0 0 0 0 0 0 0 0 0 0 0 0 0
0 0 0 0 0 0 0 1 0 0 0 0 0 1 1 1 0 0 0 0 0 0 0 0 0 0 0 0 0 0 0 0 0 0 0 0 0 0 0 0 0 0 0
Wind_Speed
6 6 5 5 5 5 5 5 4 4 4 4 4 3 3 3 3 2 2 2 2 1 1 2 2 2 1 1 2 2 2 2 2 1 1 1 1 2 2 2 1 1 1
5 5 5 4 4 4 4 4 4 4 3 4 3 3 3 3 3 3 3 3 3 3 2 2 2 2 1 1 1 2 2 2 2 2 1 1 1 1 1 2 2 2 1
3 4 4 4 4 4 3 3 3 3 3 3 3 4 3 3 3 4 4 4 4 3 3 3 3 2 2 2 2 2 1 2 2 2 1 1 1 1 1 2 2 2 2
3 3 3 4 4 4 3 3 3 3 3 3 3 4 4 3 3 3 3 3 3 3 3 3 3 3 3 3 2 2 2 2 2 2 1 1 1 1 1 1 2 2 2
2 3 4 4 3 3 4 4 4 4 3 3 2 2 3 3 3 3 3 3 3 2 2 2 2 2 3 3 2 2 2 2 2 2 2 1 1 0 1 0 1 2 2
2 2 2 2 3 3 4 4 4 4 3 3 3 3 3 3 3 4 4 3 3 2 2 2 1 1 2 2 2 3 3 3 3 2 2 2 2 2 1 1 0 0 1
1 1 1 2 2 3 3 4 4 4 4 3 3 3 3 4 4 4 5 3 3 3 3 2 1 1 2 1 2 2 2 2 4 4 3 4 3 2 2 2 1 1 2
1 1 1 1 2 2 2 3 3 3 3 3 3 4 3 4 4 4 4 3 2 2 3 3 2 2 2 2 2 1 1 1 2 3 3 3 3 3 3 2 2 1 2
1 1 1 2 2 2 3 3 2 3 3 3 3 3 4 4 4 5 5 3 2 2 2 2 3 3 3 4 3 2 1 1 0 1 2 2 2 2 3 2 2 1 1
2 2 2 2 3 3 4 3 2 2 3 3 3 3 4 3 4 5 5 3 3 2 1 2 3 3 3 4 4 3 3 2 1 1 1 0 1 1 3 3 3 2 1
2 1 1 2 2 3 2 2 2 2 2 3 3 2 3 3 4 5 6 4 4 4 3 2 2 4 4 4 4 3 4 3 2 2 1 1 0 0 1 1 1 2 2
1 1 1 1 1 1 2 2 2 3 3 3 2 2 2 3 3 5 6 6 5 4 4 3 3 5 5 4 3 3 3 3 2 2 1 1 0 1 1 0 1 2 2
1 1 1 1 1 1 2 2 2 2 2 2 3 3 3 2 2 4 6 7 6 4 3 4 4 4 4 3 3 3 3 2 2 2 2 1 1 1 1 1 0 0 1
2 1 1 1 1 1 1 1 1 2 2 3 3 3 3 2 2 2 2 3 4 3 2 2 2 3 2 2 1 2 2 2 2 2 2 1 1 0 0 0 0 0 0
2 2 1 1 1 1 1 1 2 2 3 3 4 4 4 4 4 5 4 3 3 3 3 1 1 1 1 1 1 1 1 1 2 1 2 1 1 0 1 0 0 0 1
1 1 1 1 1 1 1 1 2 1 1 2 4 3 3 4 4 4 5 5 5 6 4 2 2 3 3 3 3 2 2 2 2 2 2 2 2 2 1 1 1 1 2
2 2 1 1 1 1 1 1 1 2 2 2 2 2 2 3 3 4 4 4 5 7 3 3 3 4 3 3 3 3 3 3 2 3 3 3 2 2 2 1 1 1 2
2 2 1 1 1 1 2 2 2 1 1 2 2 2 1 1 2 3 4 5 2 3 3 3 4 3 3 3 3 3 3 3 3 3 3 3 3 2 2 2 2 2 2
2 1 1 1 1 1 1 1 1 1 1 1 1 2 2 1 1 2 4 3 3 3 3 3 3 3 3 3 3 3 3 3 3 2 3 3 3 3 3 3 3 3 3
2 2 2 1 1 1 1 1 1 1 1 1 1 1 0 1 1 1 1 2 2 2 2 3 3 2 2 2 2 2 2 2 2 2 3 3 3 3 4 4 3 3 3
2 2 1 1 1 2 2 1 1 1 1 2 2 2 3 2 2 2 2 2 2 3 3 3 2 2 2 2 2 2 2 2 2 2 3 3 3 3 3 3 4 4 3
2 2 1 1 1 1 2 2 1 2 2 2 1 1 2 2 2 2 2 2 2 3 2 2 2 2 2 2 2 3 3 2 2 2 3 3 3 3 3 3 3 3 3
2 2 1 1 1 1 1 1 1 1 1 1 1 1 1 1 2 2 2 2 2 2 2 2 2 2 2 2 3 3 3 3 3 3 3 3 3 3 3 3 4 3 3
2 2 2 1 1 1 1 1 1 2 2 1 1 1 1 1 2 2 2 2 2 2 2 2 3 3 3 2 2 2 2 2 3 3 4 3 3 3 3 4 4 4 4
1 2 2 2 2 2 1 1 1 1 1 2 2 1 1 1 2 2 1 2 2 2 2 2 2 3 3 3 2 2 2 3 3 2 3 3 4 4 4 4 4 4 4
1 1 1 1 1 1 2 2 2 1 2 2 2 1 1 2 2 2 2 2 2 2 2 2 2 2 3 2 3 3 3 3 3 3 3 3 4 4 4 4 4 4 4
Wind_Direction
203 203 202 203 202 197 196 201 200 199 195 195 193 194 195 198 197 194 211 207 205 224 226 210 226 204 185 192 185 185 186 178 207 257 249 297 322 342 350 344 334 324 320
200 195 200 202 198 202 209 210 197 196 196 199 196 193 199 203 203 201 214 215 212 219 227 217 229 214 189 196 194 195 190 185 190 218 233 272 281 319 350 347 350 355 329
188 189 195 199 197 200 208 206 194 196 203 200 198 201 207 209 210 211 211 214 218 221 221 213 217 197 202 204 200 202 198 185 181 182 208 218 259 332 8 356 1 358 342
184 185 195 205 204 201 190 189 196 201 208 209 209 209 212 213 211 212 209 216 222 224 222 216 211 204 205 203 200 197 179 161 158 164 189 207 256 312 351 344 348 354 344
167 182 201 202 202 197 192 191 188 191 209 208 200 207 214 211 217 210 205 207 205 210 219 222 214 199 191 188 180 179 166 164 166 171 188 183 220 241 267 277 319 335 331
150 187 186 174 186 198 202 193 184 182 188 186 192 205 219 229 228 206 194 196 194 195 207 221 205 175 162 145 146 160 168 175 180 179 193 210 230 224 218 213 198 324 311
154 163 162 166 181 205 206 191 191 186 180 186 195 200 226 240 222 205 192 185 187 194 193 192 193 163 154 151 128 126 146 168 175 179 196 219 219 213 199 217 224 234 252
156 167 171 164 177 189 185 190 192 184 186 198 209 214 227 243 221 201 186 184 188 193 193 193 187 188 182 162 153 134 139 189 196 194 207 224 221 213 204 208 214 240 268
188 222 231 207 186 185 196 202 198 191 201 209 208 212 223 244 222 196 180 179 188 199 197 191 189 196 194 166 159 160 156 297 164 153 188 215 219 209 178 156 165 183 262
223 230 227 216 201 204 212 210 201 198 210 213 220 222 221 231 221 198 179 172 183 201 212 214 203 195 192 180 176 175 193 232 211 118 112 53 192 177 166 184 188 186 213
251 246 239 226 218 218 224 213 190 191 197 202 213 235 225 220 212 200 186 184 189 193 204 217 219 196 197 195 184 194 210 207 191 172 166 153 140 161 171 186 200 197 201
195 232 247 243 234 210 198 211 192 183 194 209 214 236 236 221 205 198 195 199 191 190 205 213 213 199 198 200 195 194 181 169 168 157 154 167 241 286 296 273 228 232 234
156 235 266 275 283 209 192 201 198 191 201 213 213 226 240 233 216 204 201 202 197 197 208 207 201 191 188 193 195 168 159 165 169 171 187 220 242 255 294 333 342 282 291
188 231 241 215 266 288 241 219 212 214 214 222 225 229 231 225 219 210 205 199 198 203 209 197 179 167 166 175 168 169 175 181 183 193 207 216 208 207 274 320 266 316 339
199 218 232 222 210 231 250 250 234 229 220 218 224 219 209 224 231 205 189 193 191 187 159 151 159 162 176 189 194 189 181 171 179 193 190 184 183 204 271 294 217 179 220
192 220 219 226 229 213 213 314 353 297 273 236 234 224 227 225 212 200 207 204 184 163 153 177 187 198 206 206 206 209 203 202 200 196 197 195 203 219 242 262 245 221 238
193 213 224 225 224 222 215 205 289 359 32 33 349 275 218 211 206 202 189 176 172 165 175 194 202 207 216 217 214 214 215 212 200 203 208 210 213 218 224 239 238 239 247
194 208 222 233 230 227 221 215 202 198 293 336 354 329 318 184 182 176 151 135 160 188 208 213 218 215 215 219 220 218 217 209 206 214 220 219 217 216 220 225 227 237 243
198 213 220 232 229 228 226 213 202 198 211 261 335 343 347 20 77 120 146 162 186 207 218 225 226 224 222 217 214 213 212 210 210 210 217 219 220 221 226 230 228 232 240
213 212 191 201 216 211 204 205 211 208 210 225 236 259 23 79 113 159 184 201 199 215 224 230 232 231 226 218 208 203 203 208 210 213 216 217 219 222 230 234 235 236 239
198 197 189 194 218 222 217 218 222 229 237 239 245 236 189 193 211 205 203 219 223 227 233 231 224 223 215 199 196 199 206 210 212 213 215 220 222 228 236 237 239 242 244
188 194 200 210 230 236 234 227 223 227 236 245 267 269 204 198 218 219 221 229 232 233 229 219 218 218 207 198 203 203 207 218 228 227 225 225 226 236 240 239 240 240 240
190 195 204 211 215 230 237 239 223 223 233 242 253 260 223 216 232 240 241 244 238 235 227 216 220 221 214 205 200 198 206 215 222 223 225 231 234 234 236 238 238 240 240
193 198 209 213 204 206 211 225 232 226 225 232 234 233 240 242 241 244 243 243 241 241 230 218 221 223 218 211 206 207 215 225 228 222 214 219 230 236 235 237 236 235 238
191 196 203 207 203 204 206 203 219 234 239 236 239 241 246 252 256 259 258 251 250 250 245 230 222 222 222 222 218 219 212 211 221 229 218 218 227 230 229 235 241 243 239
189 189 188 183 188 195 204 212 224 237 252 251 242 242 243 246 253 262 263 259 258 252 247 232 225 224 227 226 231 228 212 211 215 219 216 215 221 228 228 229 234 237 239